24.9,31.2,1013.4,202208181030
24.5,36.5,1013.4,202208181100
25.0,26.3,1013.1,202208181130
23.6,31.7,1012.4,202208181200
24.1,31.7,1011.8,202208181230
23.8,28.1,1011.9,202208181300
24.0,29.2,1011.9,202208181330
24.3,25.6,1011.3,202208181400
24.8,22.3,1011.3,202208181430
24.4,26.2,1010.9,202208181500
24.2,24.2,1011.0,202208181530
24.2,24.7,1010.9,202208181600
24.3,25.5,1010.6,202208181630
24.0,29.2,1010.4,202208181700
23.2,43.0,1010.7,202208181730
22.5,58.5,1011.2,202208181800
21.9,77.0,1011.5,202208181830
21.2,95.5,1011.8,202208181900
20.5,99.9,1012.0,202208181930
20.0,99.9,1012.5,202208182000
19.8,99.9,1012.9,202208182030
19.4,99.9,1012.5,202208182100
19.2,99.9,1013.0,202208182130
18.8,99.9,1012.6,202208182200
18.6,99.9,1013.1,202208182230
18.6,99.9,1012.6,202208182300
18.1,99.9,1012.2,202208182330
18.0,99.9,1012.1,202208190000
18.0,99.9,1012.6,202208190030
18.1,99.9,1012.3,202208190100
18.1,99.9,1012.3,202208190130
18.2,99.9,1012.5,202208190200
18.1,99.9,1012.5,202208190230
18.1,99.9,1012.6,202208190300
18.2,99.9,1012.2,202208190330
18.0,99.9,1012.5,202208190400
18.0,99.9,1012.3,202208190430
18.0,99.9,1012.8,202208190500
18.1,99.9,1013.1,202208190530
18.2,99.9,1012.8,202208190600
18.3,99.9,1013.0,202208190630
18.4,99.9,1013.1,202208190700
18.4,99.9,1013.0,202208190730
18.6,99.9,1012.9,202208190800
18.5,99.9,1013.0,202208190830
18.3,99.9,1013.0,202208190900
18.4,99.9,1013.2,202208190930
18.6,99.9,1013.2,202208191000
18.6,99.9,1013.4,202208191030
18.3,99.9,1013.3,202208191100
17.7,99.9,1013.3,202208191130
18.0,99.9,1013.1,202208191200
17.9,99.9,1013.3,202208191230
17.8,99.9,1013.5,202208191300
17.7,99.9,1013.5,202208191330
18.0,99.9,1013.4,202208191400
18.0,99.9,1013.4,202208191430
17.8,99.9,1013.8,202208191500
17.6,99.9,1013.9,202208191530
17.6,99.9,1014.0,202208191600
17.4,99.9,1014.1,202208191630
17.3,99.9,1014.3,202208191700
17.0,99.9,1014.6,202208191730
16.7,99.9,1014.7,202208191800
16.4,99.9,1015.1,202208191830
16.2,99.9,1015.5,202208191900
16.0,99.9,1015.8,202208191930
15.9,99.9,1015.9,202208192000
15.9,99.9,1016.3,202208192030
16.0,99.9,1016.3,202208192100
16.1,99.9,1016.5,202208192130
16.1,99.9,1016.4,202208192200
16.2,99.9,1016.2,202208192230
16.2,99.9,1016.2,202208192300
16.3,99.9,1016.1,202208192330
16.4,99.9,1016.4,202208200000
16.4,99.9,1016.1,202208200030
16.4,99.9,1016.0,202208200100
16.3,99.9,1016.2,202208200130
16.2,99.9,1016.4,202208200200
16.2,99.9,1016.4,202208200230
16.2,99.9,1016.3,202208200300
16.2,99.9,1016.4,202208200330
16.1,99.9,1016.7,202208200400
16.1,99.9,1016.9,202208200430
16.0,99.9,1017.0,202208200500
16.1,99.9,1017.3,202208200530
16.1,99.9,1017.4,202208200600
16.3,99.9,1017.5,202208200630
16.2,99.9,1017.7,202208200700
16.1,99.9,1017.8,202208200730
16.2,99.9,1018.0,202208200800
16.4,99.9,1018.2,202208200830
16.3,99.9,1018.2,202208200900
16.4,99.9,1018.3,202208200930
17.0,99.9,1018.3,202208201000
